Time,TemperatureF,DewpointF,PressureIn,WindDirection,WindDirectionDegrees,WindSpeedMPH,WindSpeedGustMPH,Humidity,HourlyPrecipIn,Conditions,Clouds,dailyrainin,SoftwareType,DateUTC
2013-02-06 00:01:00,19.0,19.0,-100.00,WSW,245,0.0,0.0,99,0.00,,,-99.99,,2013-02-06 06:01:00,
2013-02-06 00:11:00,20.0,20.0,-100.00,WSW,255,0.0,2.0,99,0.00,,,-99.99,,2013-02-06 06:11:00,
2013-02-06 00:21:00,20.0,20.0,-100.00,WNW,300,0.0,2.0,99,0.00,,,-99.99,,2013-02-06 06:21:00,
2013-02-06 00:31:00,22.0,22.0,-100.00,South,175,1.0,3.0,99,0.00,,,-99.99,,2013-02-06 06:31:00,
2013-02-06 00:42:00,22.0,22.0,-100.00,WSW,245,2.0,3.0,99,0.00,,,-99.99,,2013-02-06 06:42:00,
2013-02-06 00:51:00,22.0,22.0,-100.00,SW,225,0.0,2.0,99,0.00,,,-99.99,,2013-02-06 06:51:00,
2013-02-06 01:01:00,22.0,22.0,-100.00,North,-999,-999.0,-999.0,99,0.00,,,-99.99,,2013-02-06 07:01:00,
2013-02-06 01:11:00,23.0,23.0,-100.00,South,185,0.0,1.0,99,0.00,,,-99.99,,2013-02-06 07:11:00,
2013-02-06 01:21:00,23.0,23.0,-100.00,South,185,0.0,0.0,99,0.00,,,-99.99,,2013-02-06 07:21:00,
2013-02-06 01:32:00,24.0,24.0,-100.00,WSW,245,2.0,2.0,99,0.00,,,-99.99,,2013-02-06 07:32:00,
2013-02-06 01:41:00,24.0,24.0,-100.00,SW,215,1.0,2.0,99,0.00,,,-99.99,,2013-02-06 07:41:00,
2013-02-06 01:51:00,24.0,24.0,-100.00,West,275,1.0,3.0,99,0.00,,,-99.99,,2013-02-06 07:51:00,
2013-02-06 02:01:00,24.0,24.0,-100.00,SSE,160,0.0,2.0,99,0.00,,,-99.99,,2013-02-06 08:01:00,
2013-02-06 02:11:00,25.0,25.0,-100.00,SSE,165,0.0,1.0,99,0.00,,,-99.99,,2013-02-06 08:11:00,
2013-02-06 02:21:00,25.0,25.0,-100.00,SE,135,0.0,1.0,99,0.00,,,-99.99,,2013-02-06 08:21:00,
2013-02-06 02:31:00,25.0,25.0,-100.00,SE,130,0.0,1.0,99,0.00,,,-99.99,,2013-02-06 08:31:00,
2013-02-06 02:41:00,25.0,25.0,-100.00,SE,130,0.0,1.0,99,0.00,,,-99.99,,2013-02-06 08:41:00,
2013-02-06 02:53:00,25.0,25.0,-100.00,NE,35,0.0,2.0,99,0.00,,,-99.99,,2013-02-06 08:53:00,
2013-02-06 03:01:00,25.0,25.0,-100.00,ENE,70,1.0,2.0,99,0.00,,,-99.99,,2013-02-06 09:01:00,
2013-02-06 03:11:00,25.0,25.0,-100.00,ENE,70,0.0,1.0,99,0.00,,,-99.99,,2013-02-06 09:11:00,
2013-02-06 03:21:00,25.0,25.0,-100.00,SSE,150,1.0,2.0,99,0.00,,,-99.99,,2013-02-06 09:21:00,
2013-02-06 03:31:00,26.0,26.0,-100.00,SSE,160,0.0,2.0,99,0.00,,,-99.99,,2013-02-06 09:31:00,
2013-02-06 03:41:00,26.0,26.0,-100.00,SSE,160,0.0,2.0,99,0.00,,,-99.99,,2013-02-06 09:41:00,
2013-02-06 03:51:00,27.0,27.0,-100.00,South,175,1.0,4.0,99,0.00,,,-99.99,,2013-02-06 09:51:00,
2013-02-06 04:01:00,28.0,28.0,-100.00,South,190,2.0,4.0,99,0.00,,,-99.99,,2013-02-06 10:01:00,
2013-02-06 04:11:00,28.0,28.0,-100.00,WSW,240,4.0,4.0,99,0.00,,,-99.99,,2013-02-06 10:11:00,
2013-02-06 04:21:00,28.0,28.0,-100.00,SW,230,4.0,6.0,99,0.00,,,-99.99,,2013-02-06 10:21:00,
2013-02-06 04:31:00,29.0,29.0,-100.00,SW,230,6.0,9.0,99,0.00,,,-99.99,,2013-02-06 10:31:00,
2013-02-06 04:41:00,29.0,29.0,-100.00,SW,230,6.0,9.0,99,0.00,,,-99.99,,2013-02-06 10:41:00,
2013-02-06 04:51:00,30.0,29.0,-100.00,SW,215,5.0,9.0,97,0.00,,,-99.99,,2013-02-06 10:51:00,
2013-02-06 05:11:00,30.0,29.0,-100.00,SW,230,2.0,7.0,96,0.00,,,-99.99,,2013-02-06 11:11:00,
2013-02-06 05:22:00,31.0,29.0,-100.00,SW,215,3.0,7.0,96,0.00,,,-99.99,,2013-02-06 11:22:00,
2013-02-06 05:32:00,31.0,30.0,-100.00,SSW,200,4.0,9.0,95,0.00,,,-99.99,,2013-02-06 11:32:00,
2013-02-06 05:42:00,31.0,30.0,-100.00,SSW,200,4.0,9.0,95,0.00,,,-99.99,,2013-02-06 11:42:00,
2013-02-06 05:52:00,31.0,29.0,-100.00,SSW,205,5.0,7.0,95,0.00,,,-99.99,,2013-02-06 11:52:00,
2013-02-06 06:01:00,31.0,29.0,-100.00,SSW,205,5.0,7.0,95,0.00,,,-99.99,,2013-02-06 12:01:00,
2013-02-06 06:22:00,31.0,29.0,-100.00,SSW,200,6.0,9.0,94,0.00,,,-99.99,,2013-02-06 12:22:00,
2013-02-06 06:32:00,31.0,29.0,-100.00,SSW,205,5.0,10.0,94,0.00,,,-99.99,,2013-02-06 12:32:00,
2013-02-06 06:42:00,31.0,29.0,-100.00,SSW,205,5.0,10.0,94,0.00,,,-99.99,,2013-02-06 12:42:00,
2013-02-06 06:52:00,31.0,29.0,-100.00,SSW,210,3.0,10.0,94,0.00,,,-99.99,,2013-02-06 12:52:00,
2013-02-06 07:01:00,31.0,29.0,-100.00,SSW,210,3.0,10.0,94,0.00,,,-99.99,,2013-02-06 13:01:00,
2013-02-06 07:11:00,31.0,29.0,-100.00,SW,220,4.0,9.0,94,0.00,,,-99.99,,2013-02-06 13:11:00,
2013-02-06 07:22:00,31.0,29.0,-100.00,WSW,240,4.0,9.0,94,0.00,,,-99.99,,2013-02-06 13:22:00,
2013-02-06 07:32:00,31.0,29.0,-100.00,SW,235,6.0,9.0,93,0.00,,,-99.99,,2013-02-06 13:32:00,
2013-02-06 07:42:00,31.0,29.0,-100.00,SW,235,6.0,9.0,93,0.00,,,-99.99,,2013-02-06 13:42:00,
2013-02-06 07:52:00,31.0,29.0,-100.00,SW,230,8.0,12.0,94,0.00,,,-99.99,,2013-02-06 13:52:00,
2013-02-06 08:01:00,31.0,29.0,-100.00,SW,230,8.0,12.0,94,0.00,,,-99.99,,2013-02-06 14:01:00,
2013-02-06 08:11:00,31.0,29.0,-100.00,SW,220,6.0,11.0,93,0.00,,,-99.99,,2013-02-06 14:11:00,
2013-02-06 08:21:00,31.0,29.0,-100.00,SW,220,6.0,11.0,93,0.00,,,-99.99,,2013-02-06 14:21:00,
2013-02-06 08:32:00,32.0,30.0,-100.00,SW,220,8.0,12.0,92,0.00,,,-99.99,,2013-02-06 14:32:00,
2013-02-06 08:41:00,32.0,30.0,-100.00,SW,220,8.0,12.0,92,0.00,,,-99.99,,2013-02-06 14:41:00,
2013-02-06 08:52:00,33.0,30.0,-100.00,SW,235,9.0,14.0,91,0.00,,,-99.99,,2013-02-06 14:52:00,
2013-02-06 09:01:00,33.0,31.0,-100.00,SW,230,9.0,14.0,91,0.00,,,-99.99,,2013-02-06 15:01:00,
2013-02-06 09:11:00,34.0,31.0,-100.00,SW,220,11.0,17.0,89,0.00,,,-99.99,,2013-02-06 15:11:00,
2013-02-06 09:21:00,35.0,32.0,-100.00,SW,225,12.0,19.0,87,0.00,,,-99.99,,2013-02-06 15:21:00,
2013-02-06 09:31:00,36.0,32.0,-100.00,SW,235,12.0,20.0,85,0.00,,,-99.99,,2013-02-06 15:31:00,
2013-02-06 09:41:00,37.0,32.0,-100.00,SW,225,13.0,18.0,83,0.00,,,-99.99,,2013-02-06 15:41:00,
2013-02-06 09:51:00,38.0,32.0,-100.00,SW,235,12.0,19.0,80,0.00,,,-99.99,,2013-02-06 15:51:00,
2013-02-06 10:01:00,39.0,33.0,-100.00,SW,225,14.0,22.0,76,0.00,,,-99.99,,2013-02-06 16:01:00,
2013-02-06 10:11:00,41.0,32.0,-100.00,SW,235,26.0,32.0,70,0.00,,,-99.99,,2013-02-06 16:11:00,
2013-02-06 10:21:00,40.0,31.0,-100.00,North,-999,-999.0,-999.0,69,0.00,,,-99.99,,2013-02-06 16:21:00,
2013-02-06 10:32:00,40.0,31.0,-100.00,SW,235,23.0,34.0,68,0.00,,,-99.99,,2013-02-06 16:32:00,
2013-02-06 10:42:00,40.0,31.0,-100.00,SW,235,23.0,34.0,68,0.00,,,-99.99,,2013-02-06 16:42:00,
2013-02-06 10:51:00,42.0,31.0,-100.00,WSW,240,24.0,31.0,66,0.00,,,-99.99,,2013-02-06 16:51:00,
2013-02-06 11:01:00,42.0,31.0,-100.00,WSW,240,24.0,31.0,66,0.00,,,-99.99,,2013-02-06 17:01:00,
2013-02-06 11:11:00,42.0,31.0,-100.00,WSW,245,26.0,34.0,65,0.00,,,-99.99,,2013-02-06 17:11:00,
2013-02-06 11:21:00,42.0,31.0,-100.00,WSW,250,25.0,35.0,65,0.00,,,-99.99,,2013-02-06 17:21:00,
2013-02-06 11:32:00,41.0,31.0,-100.00,WSW,240,21.0,31.0,67,0.00,,,-99.99,,2013-02-06 17:32:00,
2013-02-06 11:41:00,41.0,31.0,-100.00,WSW,240,23.0,32.0,67,0.00,,,-99.99,,2013-02-06 17:41:00,
2013-02-06 11:52:00,41.0,31.0,-100.00,WSW,245,23.0,30.0,66,0.00,,,-99.99,,2013-02-06 17:52:00,
2013-02-06 12:01:00,41.0,31.0,-100.00,WSW,240,23.0,29.0,66,0.00,,,-99.99,,2013-02-06 18:01:00,
2013-02-06 12:11:00,42.0,31.0,-100.00,WSW,245,18.0,27.0,67,0.00,,,-99.99,,2013-02-06 18:11:00,
2013-02-06 12:23:00,42.0,32.0,-100.00,WSW,245,21.0,24.0,67,0.00,,,-99.99,,2013-02-06 18:23:00,
2013-02-06 12:32:00,41.0,32.0,-100.00,WSW,245,19.0,26.0,70,0.00,,,-99.99,,2013-02-06 18:32:00,
2013-02-06 12:42:00,40.0,32.0,-100.00,WSW,245,18.0,24.0,71,0.00,,,-99.99,,2013-02-06 18:42:00,
2013-02-06 12:52:00,40.0,32.0,-100.00,WSW,250,17.0,23.0,72,0.00,,,-99.99,,2013-02-06 18:52:00,
2013-02-06 13:11:00,41.0,33.0,-100.00,WSW,240,18.0,24.0,72,0.00,,,-99.99,,2013-02-06 19:11:00,
2013-02-06 13:32:00,42.0,35.0,-100.00,WSW,240,20.0,27.0,75,0.01,,,-99.99,,2013-02-06 19:32:00,
2013-02-06 13:41:00,42.0,35.0,-100.00,WSW,240,20.0,27.0,75,0.01,,,-99.99,,2013-02-06 19:41:00,
2013-02-06 13:52:00,43.0,35.0,-100.00,WSW,245,17.0,25.0,72,0.00,,,-99.99,,2013-02-06 19:52:00,
2013-02-06 14:11:00,44.0,34.0,-100.00,WSW,245,20.0,26.0,67,0.00,,,-99.99,,2013-02-06 20:11:00,
2013-02-06 14:21:00,45.0,35.0,-100.00,WSW,240,22.0,27.0,67,0.00,,,-99.99,,2013-02-06 20:21:00,
2013-02-06 14:32:00,45.0,35.0,-100.00,WSW,245,18.0,28.0,66,0.00,,,-99.99,,2013-02-06 20:32:00,
2013-02-06 14:41:00,45.0,35.0,-100.00,WSW,250,16.0,24.0,66,0.00,,,-99.99,,2013-02-06 20:41:00,
2013-02-06 14:52:00,45.0,34.0,-100.00,WSW,250,13.0,21.0,66,0.00,,,-99.99,,2013-02-06 20:52:00,
2013-02-06 15:01:00,45.0,34.0,-100.00,WSW,250,13.0,21.0,66,0.00,,,-99.99,,2013-02-06 21:01:00,
2013-02-06 15:11:00,45.0,34.0,-100.00,WSW,250,16.0,21.0,66,0.00,,,-99.99,,2013-02-06 21:11:00,
2013-02-06 15:21:00,45.0,35.0,-100.00,WSW,250,14.0,21.0,66,0.00,,,-99.99,,2013-02-06 21:21:00,
2013-02-06 15:32:00,46.0,35.0,-100.00,WSW,250,17.0,20.0,66,0.00,,,-99.99,,2013-02-06 21:32:00,
2013-02-06 15:41:00,46.0,35.0,-100.00,WSW,250,17.0,20.0,66,0.00,,,-99.99,,2013-02-06 21:41:00,
2013-02-06 15:51:00,46.0,35.0,-100.00,WSW,240,16.0,21.0,66,0.00,,,-99.99,,2013-02-06 21:51:00,
2013-02-06 16:01:00,46.0,35.0,-100.00,WSW,240,16.0,21.0,66,0.00,,,-99.99,,2013-02-06 22:01:00,
2013-02-06 16:11:00,46.0,35.0,-100.00,WSW,245,16.0,19.0,67,0.00,,,-99.99,,2013-02-06 22:11:00,
2013-02-06 16:21:00,46.0,36.0,-100.00,WSW,245,16.0,21.0,67,0.00,,,-99.99,,2013-02-06 22:21:00,
2013-02-06 16:31:00,46.0,36.0,-100.00,SW,235,14.0,21.0,67,0.00,,,-99.99,,2013-02-06 22:31:00,
2013-02-06 16:41:00,46.0,36.0,-100.00,SW,235,14.0,21.0,67,0.00,,,-99.99,,2013-02-06 22:41:00,
2013-02-06 16:51:00,45.0,36.0,-100.00,WSW,240,14.0,17.0,69,0.00,,,-99.99,,2013-02-06 22:51:00,
2013-02-06 17:01:00,45.0,36.0,-100.00,WSW,240,14.0,17.0,69,0.00,,,-99.99,,2013-02-06 23:01:00,
2013-02-06 17:11:00,45.0,36.0,-100.00,SW,235,15.0,18.0,69,0.00,,,-99.99,,2013-02-06 23:11:00,
2013-02-06 17:21:00,45.0,36.0,-100.00,WSW,245,14.0,17.0,69,0.00,,,-99.99,,2013-02-06 23:21:00,
2013-02-06 17:32:00,45.0,35.0,-100.00,West,270,5.0,13.0,70,0.00,,,-99.99,,2013-02-06 23:32:00,
2013-02-06 17:41:00,45.0,35.0,-100.00,West,270,5.0,13.0,70,0.00,,,-99.99,,2013-02-06 23:41:00,
2013-02-06 17:52:00,44.0,35.0,-100.00,West,265,4.0,6.0,71,0.00,,,-99.99,,2013-02-06 23:52:00,
2013-02-06 18:01:00,44.0,35.0,-100.00,West,265,4.0,6.0,71,0.00,,,-99.99,,2013-02-07 00:01:00,
2013-02-06 18:11:00,44.0,35.0,-100.00,West,265,6.0,7.0,71,0.00,,,-99.99,,2013-02-07 00:11:00,
2013-02-06 18:21:00,44.0,35.0,-100.00,SW,230,1.0,7.0,71,0.00,,,-99.99,,2013-02-07 00:21:00,
2013-02-06 18:31:00,43.0,35.0,-100.00,NNW,335,1.0,1.0,73,0.00,,,-99.99,,2013-02-07 00:31:00,
2013-02-06 18:41:00,43.0,35.0,-100.00,NNW,335,1.0,1.0,73,0.00,,,-99.99,,2013-02-07 00:41:00,
2013-02-06 18:51:00,42.0,35.0,-100.00,SW,235,0.0,2.0,75,0.00,,,-99.99,,2013-02-07 00:51:00,
2013-02-06 19:21:00,40.0,34.0,-100.00,South,185,0.0,3.0,77,0.00,,,-99.99,,2013-02-07 01:21:00,
2013-02-06 19:31:00,40.0,34.0,-100.00,SW,230,0.0,0.0,78,0.00,,,-99.99,,2013-02-07 01:31:00,
2013-02-06 19:41:00,39.0,34.0,-100.00,ESE,120,0.0,1.0,79,0.00,,,-99.99,,2013-02-07 01:41:00,
2013-02-06 19:52:00,39.0,33.0,-100.00,ESE,110,0.0,1.0,80,0.00,,,-99.99,,2013-02-07 01:52:00,
2013-02-06 20:01:00,39.0,33.0,-100.00,ESE,110,0.0,1.0,80,0.00,,,-99.99,,2013-02-07 02:01:00,
2013-02-06 20:11:00,38.0,33.0,-100.00,North,5,0.0,1.0,82,0.00,,,-99.99,,2013-02-07 02:11:00,
2013-02-06 20:21:00,38.0,34.0,-100.00,North,5,0.0,1.0,82,0.00,,,-99.99,,2013-02-07 02:21:00,
2013-02-06 20:31:00,38.0,33.0,-100.00,SSW,200,0.0,1.0,84,0.00,,,-99.99,,2013-02-07 02:31:00,
2013-02-06 20:41:00,38.0,33.0,-100.00,SSW,200,0.0,1.0,84,0.00,,,-99.99,,2013-02-07 02:41:00,
2013-02-06 20:51:00,38.0,33.0,-100.00,SSW,200,0.0,1.0,84,0.00,,,-99.99,,2013-02-07 02:51:00,
2013-02-06 21:02:00,37.0,34.0,-100.00,WSW,250,1.0,4.0,86,0.00,,,-99.99,,2013-02-07 03:02:00,
2013-02-06 21:11:00,37.0,33.0,-100.00,ENE,60,0.0,2.0,86,0.00,,,-99.99,,2013-02-07 03:11:00,
2013-02-06 21:21:00,36.0,33.0,-100.00,NNE,30,1.0,1.0,87,0.00,,,-99.99,,2013-02-07 03:21:00,
2013-02-06 21:31:00,35.0,33.0,-100.00,NNE,20,1.0,1.0,89,0.00,,,-99.99,,2013-02-07 03:31:00,
2013-02-06 21:41:00,35.0,33.0,-100.00,NNE,20,1.0,1.0,89,0.00,,,-99.99,,2013-02-07 03:41:00,
2013-02-06 21:51:00,35.0,33.0,-100.00,North,10,1.0,2.0,90,0.00,,,-99.99,,2013-02-07 03:51:00,
2013-02-06 22:01:00,35.0,32.0,-100.00,NNE,25,1.0,2.0,91,0.00,,,-99.99,,2013-02-07 04:01:00,
2013-02-06 22:11:00,34.0,32.0,-100.00,NNE,20,1.0,2.0,92,0.00,,,-99.99,,2013-02-07 04:11:00,
2013-02-06 22:22:00,34.0,32.0,-100.00,NNE,15,0.0,1.0,92,0.00,,,-99.99,,2013-02-07 04:22:00,
2013-02-06 22:31:00,35.0,33.0,-100.00,ENE,65,0.0,1.0,93,0.00,,,-99.99,,2013-02-07 04:31:00,
2013-02-06 22:41:00,35.0,33.0,-100.00,ENE,60,0.0,1.0,93,0.00,,,-99.99,,2013-02-07 04:41:00,
2013-02-06 22:52:00,34.0,33.0,-100.00,NE,45,1.0,1.0,93,0.00,,,-99.99,,2013-02-07 04:52:00,
2013-02-06 23:01:00,34.0,32.0,-100.00,NNE,20,1.0,2.0,93,0.00,,,-99.99,,2013-02-07 05:01:00,
2013-02-06 23:11:00,33.0,32.0,-100.00,NNE,25,1.0,3.0,94,0.00,,,-99.99,,2013-02-07 05:11:00,
2013-02-06 23:21:00,33.0,32.0,-100.00,NNE,25,1.0,2.0,94,0.00,,,-99.99,,2013-02-07 05:21:00,
2013-02-06 23:32:00,34.0,33.0,-100.00,NE,35,0.0,2.0,95,0.00,,,-99.99,,2013-02-07 05:32:00,
2013-02-06 23:42:00,34.0,33.0,-100.00,NE,35,0.0,1.0,95,0.00,,,-99.99,,2013-02-07 05:42:00,
2013-02-06 23:52:00,33.0,32.0,-100.00,NNE,20,3.0,4.0,96,0.00,,,-99.99,,2013-02-07 05:52:00,